NJE729Q EHRD-LESA

Flight info

Callsign NJE729Q
Flight time N/A
Altitude 43000
Route WOODY N872 CIV/N0482F410 N872 MEDIL UN872 KOVIN UM728 RESMI UN857 DISAK DCT ARKIP DCT BALAN DCT CHALA DCT LAPOS DCT URUNA P181 NEA N976 ZMR
Aircraft C700/M-SBDGHM1RWXY/LB2

Departure

Time N/A
Airport Rotterdam The Hague Airport (EHRD)

Arrival

Time 2026-05-03 21:31
Airport Salamanca Airport (LESA)
Time Latitude Longitude Altitude Speed Heading
2026-05-03 20:15 47.14564 1.59241 40956 ft 449 kts 213°
2026-05-03 20:15 47.09253 1.54463 40955 ft 447 kts 213°
2026-05-03 20:16 47.04845 1.50506 40953 ft 447 kts 213°
2026-05-03 20:16 46.99527 1.45743 40957 ft 449 kts 213°
2026-05-03 20:17 46.94192 1.40976 40955 ft 450 kts 213°
2026-05-03 20:17 46.88841 1.36208 40955 ft 451 kts 213°
2026-05-03 20:18 46.83482 1.31444 40958 ft 450 kts 213°
2026-05-03 20:18 46.78143 1.26708 40956 ft 448 kts 213°
2026-05-03 20:19 46.72826 1.22001 40951 ft 447 kts 213°
2026-05-03 20:19 46.67518 1.17314 40967 ft 445 kts 212°
2026-05-03 20:20 46.62210 1.12637 40971 ft 447 kts 212°
2026-05-03 20:20 46.56882 1.07957 40970 ft 448 kts 212°
2026-05-03 20:21 46.51548 1.03287 40962 ft 447 kts 212°
2026-05-03 20:21 46.46094 0.98957 40962 ft 447 kts 210°
2026-05-03 20:22 46.40652 0.94621 40963 ft 446 kts 210°
2026-05-03 20:22 46.35202 0.90313 40964 ft 446 kts 210°
2026-05-03 20:23 46.29758 0.86010 40967 ft 446 kts 210°
2026-05-03 20:23 46.24311 0.81718 40967 ft 446 kts 210°
2026-05-03 20:24 46.18885 0.77388 40972 ft 444 kts 212°
2026-05-03 20:24 46.13790 0.72382 40962 ft 442 kts 216°
2026-05-03 20:25 46.08629 0.67642 40964 ft 444 kts 213°
2026-05-03 20:25 46.03430 0.62733 40961 ft 445 kts 214°
2026-05-03 20:26 45.98257 0.57923 40958 ft 446 kts 214°
2026-05-03 20:26 45.93057 0.53072 40959 ft 445 kts 214°
2026-05-03 20:27 45.87860 0.48245 40963 ft 445 kts 214°
2026-05-03 20:27 45.82656 0.43420 40962 ft 445 kts 214°
2026-05-03 20:28 45.77447 0.38601 40976 ft 446 kts 214°
2026-05-03 20:28 45.72250 0.33803 40970 ft 443 kts 214°
2026-05-03 20:29 45.67066 0.29030 40965 ft 443 kts 214°
2026-05-03 20:29 45.61890 0.24273 40964 ft 442 kts 214°
2026-05-03 20:30 45.56715 0.19529 40960 ft 442 kts 214°
2026-05-03 20:30 45.51535 0.14790 40956 ft 443 kts 214°
2026-05-03 20:31 45.46342 0.10050 40956 ft 444 kts 214°
2026-05-03 20:31 45.41136 0.05307 40961 ft 445 kts 214°
2026-05-03 20:32 45.35921 0.00569 40957 ft 446 kts 214°
2026-05-03 20:32 45.30693 -0.04170 40964 ft 445 kts 213°
2026-05-03 20:33 45.25489 -0.08880 40962 ft 442 kts 213°
2026-05-03 20:33 45.20304 -0.13561 40959 ft 442 kts 213°
2026-05-03 20:34 45.15142 -0.18210 40956 ft 443 kts 214°
2026-05-03 20:34 45.09940 -0.22887 40956 ft 443 kts 214°
2026-05-03 20:35 45.04741 -0.27548 40959 ft 443 kts 214°
2026-05-03 20:35 44.99539 -0.32205 40953 ft 443 kts 214°
2026-05-03 20:36 44.94330 -0.36855 40959 ft 444 kts 214°
2026-05-03 20:36 44.89099 -0.41516 40962 ft 446 kts 214°
2026-05-03 20:37 44.83856 -0.46175 40963 ft 445 kts 213°
2026-05-03 20:37 44.78625 -0.50817 40964 ft 444 kts 213°
2026-05-03 20:38 44.73404 -0.55439 40962 ft 443 kts 213°
2026-05-03 20:38 44.68197 -0.60039 40960 ft 442 kts 213°
2026-05-03 20:39 44.62982 -0.64636 40957 ft 444 kts 213°
2026-05-03 20:39 44.57743 -0.69243 40954 ft 445 kts 213°
2026-05-03 20:40 44.52497 -0.73847 40956 ft 445 kts 213°
2026-05-03 20:40 44.47238 -0.78451 40962 ft 448 kts 213°
2026-05-03 20:41 44.41945 -0.83077 40961 ft 448 kts 213°
2026-05-03 20:41 44.36663 -0.87682 40942 ft 446 kts 213°
2026-05-03 20:42 44.31402 -0.92260 40943 ft 445 kts 213°
2026-05-03 20:42 44.26134 -0.96833 40940 ft 447 kts 213°
2026-05-03 20:43 44.20880 -1.01384 40947 ft 448 kts 213°
2026-05-03 20:43 44.15595 -1.05953 40947 ft 447 kts 213°
2026-05-03 20:44 44.10316 -1.10508 40941 ft 446 kts 213°
2026-05-03 20:44 44.05042 -1.15048 40960 ft 446 kts 213°
2026-05-03 20:45 43.99742 -1.19601 40936 ft 448 kts 213°
2026-05-03 20:45 43.94448 -1.24139 40936 ft 447 kts 213°
2026-05-03 20:46 43.89158 -1.28664 40937 ft 447 kts 213°
2026-05-03 20:46 43.83864 -1.33182 40936 ft 447 kts 213°
2026-05-03 20:47 43.78577 -1.37686 40935 ft 446 kts 213°
2026-05-03 20:47 43.73300 -1.42170 40936 ft 446 kts 213°
2026-05-03 20:48 43.68001 -1.46665 40937 ft 448 kts 213°
2026-05-03 20:48 43.62679 -1.51169 40940 ft 449 kts 213°
2026-05-03 20:49 43.57366 -1.55656 40970 ft 445 kts 213°
2026-05-03 20:49 43.52092 -1.60102 40970 ft 444 kts 213°
2026-05-03 20:50 43.46822 -1.64534 40968 ft 444 kts 213°
2026-05-03 20:50 43.41551 -1.68958 40961 ft 444 kts 213°
2026-05-03 20:51 43.36529 -1.73833 40967 ft 441 kts 223°
2026-05-03 20:51 43.32515 -1.80164 40968 ft 440 kts 236°
2026-05-03 20:52 43.28929 -1.86997 40960 ft 442 kts 233°
2026-05-03 20:52 43.25235 -1.93727 40960 ft 440 kts 233°
2026-05-03 20:53 43.21546 -2.00397 40964 ft 439 kts 233°
2026-05-03 20:53 43.17879 -2.07018 40959 ft 439 kts 233°
2026-05-03 20:54 43.14184 -2.13678 40971 ft 440 kts 233°
2026-05-03 20:54 43.08622 -2.23673 40968 ft 439 kts 233°
2026-05-03 20:55 43.04915 -2.30312 40975 ft 439 kts 233°
2026-05-03 20:55 43.01201 -2.36957 40981 ft 440 kts 233°
2026-05-03 20:56 42.97493 -2.43588 40961 ft 438 kts 233°
2026-05-03 20:56 42.93826 -2.50140 40628 ft 425 kts 233°
2026-05-03 20:57 42.92057 -2.53296 40378 ft 413 kts 233°
2026-05-03 20:57 42.90327 -2.56383 40135 ft 407 kts 233°
2026-05-03 20:57 42.88608 -2.59447 39888 ft 407 kts 233°
2026-05-03 20:57 42.86884 -2.62519 39657 ft 409 kts 233°
2026-05-03 20:58 42.85161 -2.65586 39426 ft 408 kts 233°
2026-05-03 20:58 42.83430 -2.68667 39110 ft 409 kts 233°
2026-05-03 20:58 42.81702 -2.71742 38756 ft 408 kts 233°
2026-05-03 20:58 42.79983 -2.74799 38350 ft 405 kts 232°
2026-05-03 20:59 42.78273 -2.77841 37909 ft 403 kts 232°
2026-05-03 20:59 42.76569 -2.80873 37475 ft 403 kts 232°
2026-05-03 20:59 42.74866 -2.83903 37052 ft 403 kts 232°
2026-05-03 20:59 42.73164 -2.86929 36646 ft 403 kts 232°
2026-05-03 21:00 42.71463 -2.89955 36235 ft 403 kts 232°
2026-05-03 21:00 42.70889 -2.90976 36111 ft 402 kts 232°
2026-05-03 21:00 42.68067 -2.95997 35452 ft 401 kts 232°
2026-05-03 21:00 42.66372 -2.99012 35071 ft 402 kts 232°
2026-05-03 21:01 42.64678 -3.02025 34692 ft 401 kts 232°
2026-05-03 21:01 42.62980 -3.05044 34316 ft 402 kts 231°
2026-05-03 21:01 42.61292 -3.08046 33976 ft 398 kts 232°
2026-05-03 21:01 42.59617 -3.11026 33544 ft 397 kts 231°
2026-05-03 21:02 42.57934 -3.14019 33114 ft 401 kts 231°
2026-05-03 21:02 42.56237 -3.17033 32678 ft 403 kts 232°
2026-05-03 21:02 42.55086 -3.19078 32399 ft 404 kts 232°
2026-05-03 21:02 42.53400 -3.22074 31997 ft 405 kts 232°
2026-05-03 21:03 42.51689 -3.25112 31592 ft 406 kts 232°
2026-05-03 21:03 42.49971 -3.28160 31192 ft 409 kts 232°
2026-05-03 21:03 42.48240 -3.31232 30802 ft 410 kts 231°
2026-05-03 21:03 42.46507 -3.34306 30415 ft 411 kts 231°
2026-05-03 21:04 42.44770 -3.37384 30026 ft 412 kts 231°
2026-05-03 21:04 42.43034 -3.40462 29566 ft 410 kts 231°
2026-05-03 21:04 42.41304 -3.43530 29162 ft 409 kts 232°
2026-05-03 21:04 42.39641 -3.46673 28718 ft 411 kts 234°
2026-05-03 21:05 42.37998 -3.49826 28280 ft 409 kts 232°
2026-05-03 21:05 42.36240 -3.52841 27849 ft 407 kts 230°
2026-05-03 21:05 42.34461 -3.55809 27416 ft 405 kts 231°
2026-05-03 21:05 42.32760 -3.58813 27001 ft 401 kts 232°
2026-05-03 21:06 42.31066 -3.61854 26588 ft 399 kts 232°
2026-05-03 21:06 42.29391 -3.64772 26190 ft 398 kts 231°
2026-05-03 21:06 42.27689 -3.67709 25791 ft 397 kts 231°
2026-05-03 21:06 42.26004 -3.70652 25400 ft 396 kts 231°
2026-05-03 21:07 42.24326 -3.73590 25012 ft 394 kts 231°
2026-05-03 21:07 42.22651 -3.76505 24640 ft 393 kts 231°
2026-05-03 21:07 42.20954 -3.79453 24260 ft 392 kts 231°
2026-05-03 21:07 42.19307 -3.82313 23902 ft 391 kts 231°
2026-05-03 21:08 42.17645 -3.85198 23529 ft 389 kts 231°
2026-05-03 21:08 42.15990 -3.88072 23089 ft 387 kts 231°
2026-05-03 21:08 42.14337 -3.90933 22653 ft 386 kts 231°
2026-05-03 21:08 42.12692 -3.93777 22220 ft 384 kts 231°
2026-05-03 21:09 42.11056 -3.96611 21805 ft 383 kts 231°
2026-05-03 21:09 42.09421 -3.99433 21379 ft 381 kts 231°
2026-05-03 21:09 42.07796 -4.02239 20968 ft 379 kts 231°
2026-05-03 21:09 42.06175 -4.05033 20557 ft 378 kts 231°
2026-05-03 21:10 42.04558 -4.07819 20163 ft 377 kts 231°
2026-05-03 21:10 42.03021 -4.10669 19765 ft 376 kts 237°
2026-05-03 21:10 42.01840 -4.13801 19366 ft 376 kts 245°
2026-05-03 21:10 42.00833 -4.17036 18980 ft 375 kts 245°
2026-05-03 21:11 41.99809 -4.20254 18607 ft 374 kts 245°
2026-05-03 21:11 41.98525 -4.23253 18203 ft 370 kts 230°
2026-05-03 21:11 41.96703 -4.25669 17766 ft 367 kts 220°
2026-05-03 21:11 41.94750 -4.27855 17342 ft 364 kts 219°
2026-05-03 21:12 41.92849 -4.30093 16921 ft 362 kts 223°
2026-05-03 21:12 41.91107 -4.32527 16507 ft 361 kts 227°
2026-05-03 21:12 41.89404 -4.34980 16090 ft 358 kts 225°
2026-05-03 21:12 41.87640 -4.37317 15687 ft 355 kts 224°
2026-05-03 21:13 41.85870 -4.39621 15292 ft 354 kts 224°
2026-05-03 21:13 41.84139 -4.41955 14905 ft 352 kts 225°
2026-05-03 21:13 41.82425 -4.44280 14518 ft 350 kts 225°
2026-05-03 21:13 41.80708 -4.46575 14136 ft 348 kts 225°
2026-05-03 21:14 41.78994 -4.48858 13749 ft 346 kts 225°
2026-05-03 21:14 41.77295 -4.51134 13324 ft 345 kts 225°
2026-05-03 21:14 41.75601 -4.53398 12904 ft 343 kts 225°
2026-05-03 21:14 41.73943 -4.55610 12487 ft 325 kts 225°
2026-05-03 21:15 41.72395 -4.57676 12071 ft 304 kts 225°
2026-05-03 21:15 41.70937 -4.59615 11659 ft 288 kts 224°
2026-05-03 21:15 41.69546 -4.61464 11248 ft 277 kts 225°
2026-05-03 21:15 41.68194 -4.63271 10834 ft 273 kts 225°
2026-05-03 21:16 41.66848 -4.65060 10434 ft 272 kts 225°
2026-05-03 21:16 41.65510 -4.66843 10041 ft 271 kts 225°
2026-05-03 21:16 41.64179 -4.68608 9717 ft 268 kts 225°
2026-05-03 21:16 41.62859 -4.70363 9460 ft 268 kts 225°
2026-05-03 21:17 41.61540 -4.72113 9291 ft 267 kts 225°
2026-05-03 21:17 41.60666 -4.73271 9205 ft 268 kts 225°
2026-05-03 21:17 41.58898 -4.75617 9027 ft 268 kts 225°
2026-05-03 21:17 41.57575 -4.77366 8896 ft 268 kts 225°
2026-05-03 21:18 41.56257 -4.79116 8767 ft 267 kts 225°
2026-05-03 21:18 41.54939 -4.80861 8637 ft 266 kts 225°
2026-05-03 21:18 41.53626 -4.82601 8507 ft 266 kts 225°
2026-05-03 21:18 41.52331 -4.84316 8386 ft 266 kts 225°
2026-05-03 21:19 41.51021 -4.86050 8254 ft 265 kts 225°
2026-05-03 21:19 41.49715 -4.87778 8129 ft 265 kts 225°
2026-05-03 21:19 41.48408 -4.89505 8000 ft 264 kts 225°
2026-05-03 21:19 41.47104 -4.91229 7872 ft 264 kts 225°
2026-05-03 21:20 41.45801 -4.92949 7752 ft 263 kts 225°
2026-05-03 21:20 41.44501 -4.94667 7615 ft 263 kts 225°
2026-05-03 21:20 41.43206 -4.96376 7494 ft 262 kts 226°
2026-05-03 21:20 41.41911 -4.98082 7369 ft 262 kts 226°
2026-05-03 21:21 41.40618 -4.99788 7251 ft 262 kts 226°
2026-05-03 21:21 41.39325 -5.01492 7128 ft 261 kts 226°
2026-05-03 21:21 41.38033 -5.03194 7007 ft 261 kts 226°
2026-05-03 21:21 41.36744 -5.04891 6885 ft 261 kts 226°
2026-05-03 21:22 41.35453 -5.06589 6762 ft 261 kts 226°
2026-05-03 21:22 41.34164 -5.08282 6639 ft 260 kts 226°
2026-05-03 21:22 41.32880 -5.09970 6515 ft 260 kts 226°
2026-05-03 21:22 41.31593 -5.11658 6400 ft 259 kts 226°
2026-05-03 21:23 41.30308 -5.13344 6277 ft 260 kts 226°
2026-05-03 21:23 41.29023 -5.15030 6150 ft 259 kts 226°
2026-05-03 21:23 41.27740 -5.16712 6019 ft 259 kts 226°
2026-05-03 21:23 41.26457 -5.18392 5898 ft 258 kts 226°
2026-05-03 21:24 41.25177 -5.20065 5758 ft 259 kts 226°
2026-05-03 21:24 41.23897 -5.21743 5637 ft 258 kts 226°
2026-05-03 21:24 41.22619 -5.23412 5506 ft 257 kts 226°
2026-05-03 21:24 41.21346 -5.25074 5383 ft 257 kts 226°
2026-05-03 21:25 41.20106 -5.26766 5258 ft 255 kts 229°
2026-05-03 21:25 41.18888 -5.28481 5135 ft 255 kts 229°
2026-05-03 21:25 41.17672 -5.30196 5018 ft 255 kts 229°
2026-05-03 21:25 41.16460 -5.31901 5012 ft 254 kts 229°
2026-05-03 21:26 41.15243 -5.33612 5014 ft 255 kts 229°
2026-05-03 21:26 41.14021 -5.35337 5015 ft 258 kts 229°
2026-05-03 21:26 41.12787 -5.37064 5020 ft 258 kts 228°
2026-05-03 21:26 41.11448 -5.38659 5019 ft 260 kts 220°
2026-05-03 21:27 41.09924 -5.39920 5001 ft 262 kts 211°
2026-05-03 21:27 41.08319 -5.40997 5000 ft 244 kts 210°
2026-05-03 21:27 41.06925 -5.41969 4910 ft 206 kts 212°
2026-05-03 21:27 41.05807 -5.42764 4768 ft 153 kts 212°
2026-05-03 21:28 41.04902 -5.43407 4591 ft 147 kts 214°
2026-05-03 21:28 41.04010 -5.44030 4395 ft 145 kts 212°
2026-05-03 21:28 41.03130 -5.44650 4205 ft 142 kts 214°
2026-05-03 21:28 41.02255 -5.45260 4011 ft 144 kts 212°
2026-05-03 21:29 41.01376 -5.45888 3821 ft 143 kts 214°
2026-05-03 21:29 41.00498 -5.46488 3621 ft 142 kts 211°
2026-05-03 21:29 40.99624 -5.47112 3399 ft 144 kts 212°
2026-05-03 21:29 40.98735 -5.47733 3196 ft 145 kts 208°
2026-05-03 21:30 40.97845 -5.48353 2997 ft 144 kts 211°
2026-05-03 21:30 40.96980 -5.48967 2795 ft 136 kts 209°
2026-05-03 21:30 40.96191 -5.49512 2645 ft 125 kts 211°
2026-05-03 21:30 40.95518 -5.49986 2590 ft 94 kts 212°
2026-05-03 21:31 40.95105 -5.50287 2586 ft 56 kts 207°
2026-05-03 21:31 40.94852 -5.50450 2585 ft 22 kts 208°
2026-05-03 21:31 40.94808 -5.50481 2585 ft 2 kts 208°
2026-05-03 21:31 40.94760 -5.50505 2592 ft 8 kts 178°
2026-05-03 21:32 40.94726 -5.50466 2593 ft 7 kts 114°
2026-05-03 21:32 40.94707 -5.50408 2588 ft 7 kts 112°
2026-05-03 21:32 40.94683 -5.50347 2591 ft 8 kts 132°
2026-05-03 21:32 40.94635 -5.50335 2589 ft 8 kts 207°
2026-05-03 21:33 40.94587 -5.50367 2593 ft 8 kts 207°
2026-05-03 21:33 40.94539 -5.50400 2593 ft 8 kts 207°
2026-05-03 21:33 40.94490 -5.50429 2593 ft 8 kts 178°
2026-05-03 21:33 40.94456 -5.50378 2591 ft 8 kts 117°
2026-05-03 21:34 40.94432 -5.50314 2594 ft 8 kts 117°
2026-05-03 21:34 40.94407 -5.50251 2594 ft 8 kts 120°
2026-05-03 21:34 40.94380 -5.50188 2591 ft 8 kts 118°
2026-05-03 21:34 40.94355 -5.50126 2591 ft 4 kts 118°
2026-05-03 21:35 40.94323 -5.50122 2594 ft 5 kts 213°
2026-05-03 21:35 40.94314 -5.50129 2594 ft 0 kts 215°
2026-05-03 21:38 40.94315 -5.50129 2594 ft 0 kts 215°